Location: Harburg
(48.7667°N, 10.6667°E)
Time: 06:21:38
(UTC+00:00)

Cosmos 2026 Rocket - Pass Details

Date: 18 September 2020
Orbit: 940 x 1000 km, 82.9° (Epoch: 22 October)

Event Time Altitude Azimuth Distance (km) Brightness Sun altitude
Rises 19:55:53 0° 350° (N) 3,715 7.7 -24.5°
Reaches altitude 10° 19:58:24 10° 349° (N) 2,768 6.9 -24.8°
Maximum altitude 20:04:47 82° 264° (W) 1,014 4.0 -25.7°
Enters shadow 20:06:55 45° 182° (S) 1,333 4.4 -26.0°
